"Pseudo-MPEC" for P20QypA

Created 2019 Aug 19 10:07:05 UT using Find_Orb

Click here for an explanation of pseudo-MPECs

 
 Astrometry: 
     P20QypA  C2019 08 09rlh8;G_glCB?=H_wcHnvg5]QDc/%,[qOt3P3TB0V)s5Q22;[ko)SF52
     P20QypA  C2019 08 09nlsRxE'L2X_fToCsR.))@xD@IMN=?jkqh6y:1yheHAstrometry1F52
     P20QypA  C2019 08 09^T(F^ef\)@#jSredacted;QaLB,DdBw%xbXgM[xf5Z2MES0Nsj,=F52
     P20QypA ^C2019 08 11.58522404 04 03.684+24 56 25.39   ~8BKq 21.12GVNEOCP568
     P20QypA ^C2019 08 11.58641004 04 03.898+24 56 25.58   ~8BKq 21.13GVNEOCP568
     P20QypA ^C2019 08 11.58760404 04 04.107+24 56 25.70   ~8BKq 21.09GVNEOCP568
     P20QypA ^C2019 08 11.58882304 04 04.321+24 56 25.89   ~8BKq 21.20GVNEOCP568
     P20QypA ^C2019 08 11.59002404 04 04.535+24 56 26.01   ~8BKq 21.19GVNEOCP568
     P20QypA ^C2019 08 11.59121704 04 04.746+24 56 26.16   ~8BKq 21.09GVNEOCP568
     P20QypA ^C2019 08 15.59387804 15 55.179+25 01 20.60   ~8FLb 21.12GVNEOCP568
     P20QypA ^C2019 08 15.59506604 15 55.383+25 01 20.70   ~8FLb 21.10GVNEOCP568
     P20QypA ^C2019 08 15.59627304 15 55.593+25 01 20.78   ~8FLb 21.01GVNEOCP568
     P20QypA KC2019 08 19x]%JY1Hx.yW,a5MiclickJLU:,AgRtQZHBf?t$DD70G5rFlX.\,wL01
     P20QypA KC2019 08 19,X,FMhJ?+$;qC5OB4gR[J'I(i+4fkFrleZiStoF#*uEwSs!5B^$ML01
     P20QypA IC2019 08 19LErhereM=dlqD[sxVSGforV1QQVJn.Wexplanationg/lcGqjtpbL01

Station data:
(568) Mauna Kea  (N19.826116 W155.472200)  US/Hawaii.
(F52) Pan-STARRS 2, Haleakala  (N20.707384 W156.255910)  US/Hawaii. 1.8-m
   Ritchey-Chrétien + CCD.
(L01) Višnjan Observatory, Tičan  (N45.290900 E13.749300)  Croatia.
   Observers K. Korlević, E. Pettarin. Measurer E. Pettarin. 1.0-m f/2.9
   reflector + CCD.

Orbital elements:  P20QypA
   Perihelion 2019 Jul 28.919461 TT = 22:04:01 (JD 2458693.419461)
Epoch 2019 Aug 19.0 TT = JDT 2458714.5   Earth MOID: 0.4873   Ma: 0.0753
M   5.25540654                      (J2000 ecliptic)
n   0.24930133     Peri.  149.57843
a   2.50026658     Node   223.64166
e   0.4101834      Incl.   10.47280
P   3.95           H   18.3     G   0.15   q 1.47469861  Q 3.52583455
From 15 observations 2019 Aug. 9-19; mean residual 0".26
Residuals in arcseconds: 
190809 F52  .06-  .02-    190811 568  .03-  .02-    190815 568  .00   .12+    
190809 F52  .08+  .10-    190811 568  .05-  .02+    190815 568  .00   .14+    
190809 F52  .04+  .01+    190811 568  .03-  .00     190819 L01  .87-  .03-    
190811 568  .05-  .05-    190811 568  .03-  .01+    190819 L01  .03+  .68-    
190811 568  .01+  .00     190815 568  .03+  .08+    190819 L01  .67+  .49+    

Ephemerides (geocentric):
Date (UTC) HH   RA              Dec         delta   r     elong  mag
---- -- -- --  -------------   -----------  ------ ------ -----  ---
2019 08 19 10  04 27 01.649   +25 01 44.38  1.3435 1.4875  76.9 21.4
2019 08 19 11  04 27 08.847   +25 01 43.27  1.3433 1.4875  76.9 21.4
2019 08 19 12  04 27 16.043   +25 01 42.13  1.3431 1.4876  76.9 21.4
2019 08 19 13  04 27 23.237   +25 01 40.96  1.3429 1.4876  76.9 21.4
2019 08 19 14  04 27 30.430   +25 01 39.77  1.3427 1.4877  76.9 21.4
2019 08 19 15  04 27 37.621   +25 01 38.54  1.3425 1.4877  77.0 21.4
2019 08 19 16  04 27 44.810   +25 01 37.28  1.3423 1.4878  77.0 21.4
2019 08 19 17  04 27 51.998   +25 01 36.00  1.3421 1.4878  77.0 21.4
2019 08 19 18  04 27 59.184   +25 01 34.69  1.3419 1.4879  77.0 21.4
2019 08 19 19  04 28 06.369   +25 01 33.34  1.3417 1.4879  77.0 21.4
2019 08 19 20  04 28 13.552   +25 01 31.97  1.3415 1.4880  77.0 21.4
2019 08 19 21  04 28 20.734   +25 01 30.57  1.3413 1.4880  77.0 21.4
2019 08 19 22  04 28 27.913   +25 01 29.14  1.3411 1.4881  77.1 21.4
2019 08 19 23  04 28 35.092   +25 01 27.68  1.3409 1.4881  77.1 21.4
2019 08 20 00  04 28 42.268   +25 01 26.19  1.3407 1.4882  77.1 21.4
2019 08 20 01  04 28 49.443   +25 01 24.68  1.3404 1.4882  77.1 21.4
2019 08 20 02  04 28 56.617   +25 01 23.13  1.3402 1.4883  77.1 21.4
2019 08 20 03  04 29 03.789   +25 01 21.55  1.3400 1.4883  77.1 21.4
2019 08 20 04  04 29 10.959   +25 01 19.95  1.3398 1.4884  77.1 21.4
2019 08 20 05  04 29 18.127   +25 01 18.31  1.3396 1.4884  77.1 21.4
2019 08 20 06  04 29 25.294   +25 01 16.65  1.3394 1.4885  77.2 21.4
2019 08 20 07  04 29 32.459   +25 01 14.95  1.3392 1.4885  77.2 21.4
2019 08 20 08  04 29 39.623   +25 01 13.23  1.3390 1.4886  77.2 21.4
2019 08 20 09  04 29 46.785   +25 01 11.48  1.3388 1.4886  77.2 21.4
2019 08 20 10  04 29 53.945   +25 01 09.70  1.3386 1.4887  77.2 21.4
2019 08 20 11  04 30 01.104   +25 01 07.89  1.3384 1.4887  77.2 21.4
2019 08 20 12  04 30 08.261   +25 01 06.05  1.3382 1.4888  77.2 21.4
2019 08 20 13  04 30 15.416   +25 01 04.19  1.3380 1.4888  77.3 21.4
2019 08 20 14  04 30 22.570   +25 01 02.29  1.3378 1.4889  77.3 21.4
2019 08 20 15  04 30 29.722   +25 01 00.36  1.3376 1.4890  77.3 21.4
2019 08 20 16  04 30 36.873   +25 00 58.41  1.3374 1.4890  77.3 21.4
2019 08 20 17  04 30 44.021   +25 00 56.42  1.3372 1.4891  77.3 21.4
2019 08 20 18  04 30 51.168   +25 00 54.41  1.3370 1.4891  77.3 21.4
2019 08 20 19  04 30 58.314   +25 00 52.37  1.3368 1.4892  77.3 21.4
2019 08 20 20  04 31 05.458   +25 00 50.30  1.3366 1.4892  77.3 21.4
2019 08 20 21  04 31 12.600   +25 00 48.20  1.3364 1.4893  77.4 21.4
2019 08 20 22  04 31 19.740   +25 00 46.07  1.3362 1.4893  77.4 21.4
2019 08 20 23  04 31 26.879   +25 00 43.91  1.3360 1.4894  77.4 21.4
2019 08 21 00  04 31 34.016   +25 00 41.72  1.3358 1.4894  77.4 21.4
2019 08 21 01  04 31 41.152   +25 00 39.51  1.3356 1.4895  77.4 21.4
2019 08 21 02  04 31 48.285   +25 00 37.26  1.3354 1.4895  77.4 21.4
2019 08 21 03  04 31 55.417   +25 00 34.99  1.3352 1.4896  77.4 21.4
2019 08 21 04  04 32 02.548   +25 00 32.68  1.3350 1.4896  77.5 21.4
2019 08 21 05  04 32 09.676   +25 00 30.35  1.3348 1.4897  77.5 21.4
2019 08 21 06  04 32 16.803   +25 00 27.99  1.3346 1.4897  77.5 21.4
2019 08 21 07  04 32 23.929   +25 00 25.60  1.3344 1.4898  77.5 21.4
2019 08 21 08  04 32 31.052   +25 00 23.18  1.3342 1.4898  77.5 21.4
2019 08 21 09  04 32 38.174   +25 00 20.73  1.3340 1.4899  77.5 21.4